Location: Glion
(46.4330°N, 6.9246°E)
Time: 17:46:50
(UTC+00:00)

USA 306 - Pass Details

Date: 03 March 2021
Orbit: 564 x 577 km, 54.0° (Epoch: 22 April)

Event Time Altitude Azimuth Distance (km) Brightness Sun altitude
Rises 18:18:31 0° 279° (W) 2,786 8.6 -10.6°
Reaches altitude 10° 18:20:59 10° 290° (WNW) 1,886 6.9 -11.1°
Maximum altitude 18:24:49 31° 353° (N) 1,032 4.3 -11.7°
Enters shadow 18:28:20 12° 54° (NE) 1,779 5.0 -12.3°
